Hagen — V2PB3 — position and weather

sailwx.info

Track history (hours):
 
Tides and Currents Weather Stations Pressure Air Temp Water Temp Dewpoint Dewpoint Depression Visibility Wind Speed Wind Dir Waves Ship Positions

Hagen

Last reported at 2014-Oct-24 19:33 UTC. Time now 2014-Oct-24 20:34 UTC.
Position N 36°02' W 005°20'.

Length 89 m; draft 3.9 m.

Type: Cargo ship. MMSI: 304010898.

Date/timePositionNaut miles runAvg speedWind from/ knotsBaromVisibWave heightAir tempDewpointWater temp
2014-Oct-24 19:33N 36°02' W 005°20'231 9.2
2014-Oct-23 18:24N 37°23' W 000°49'1210.1
2014-Oct-23 17:12N 37°31' W 000°38'7 9.7
2014-Oct-23 16:27N 37°37' W 000°32'9 9.5
2014-Oct-23 15:33N 37°45' W 000°30'9 9.2
2014-Oct-23 14:33N 37°54' W 000°28'9 9.3
2014-Oct-23 13:33N 38°03' W 000°25'12 8.8
2014-Oct-23 12:12N 38°15' W 000°26'7 0.2
2014-Oct-22 02:33N 38°08' W 000°24'8 8.5
2014-Oct-22 01:33N 37°59' W 000°25'8 8.3
2014-Oct-22 00:33N 37°51' W 000°27'8 8.5
2014-Oct-21 23:33N 37°42' W 000°28'8 8.2
2014-Oct-21 22:33N 37°34' W 000°30'8 8.4
2014-Oct-21 21:32N 37°28' W 000°38'9 8.6
2014-Oct-21 20:33N 37°23' W 000°46'9 8.7
2014-Oct-21 19:32N 37°17' W 000°54'9 9.0
2014-Oct-21 18:29N 37°10' W 001°02'218 9.1
2014-Oct-20 18:33N 35°58' W 005°18'187 8.3
2014-Oct-19 20:05N 33°51' W 008°06'  
Track history (hours):
 
Tides and Currents Weather Stations Pressure Air Temp Water Temp Dewpoint Dewpoint Depression Visibility Wind Speed Wind Dir Waves Ship Positions

Hagen

Last reported at 2014-Oct-24 19:33 UTC. Time now 2014-Oct-24 20:34 UTC.
Position N 36°02' W 005°20'.

Length 89 m; draft 3.9 m.

Type: Cargo ship. MMSI: 304010898.

Date/timePositionNaut miles runAvg speedWind from/ knotsBaromVisibWave heightAir tempDewpointWater temp
2014-Oct-24 19:33N 36°02' W 005°20'231 9.2
2014-Oct-23 18:24N 37°23' W 000°49'1210.1
2014-Oct-23 17:12N 37°31' W 000°38'7 9.7
2014-Oct-23 16:27N 37°37' W 000°32'9 9.5
2014-Oct-23 15:33N 37°45' W 000°30'9 9.2
2014-Oct-23 14:33N 37°54' W 000°28'9 9.3
2014-Oct-23 13:33N 38°03' W 000°25'12 8.8
2014-Oct-23 12:12N 38°15' W 000°26'7 0.2
2014-Oct-22 02:33N 38°08' W 000°24'8 8.5
2014-Oct-22 01:33N 37°59' W 000°25'8 8.3
2014-Oct-22 00:33N 37°51' W 000°27'8 8.5
2014-Oct-21 23:33N 37°42' W 000°28'8 8.2
2014-Oct-21 22:33N 37°34' W 000°30'8 8.4
2014-Oct-21 21:32N 37°28' W 000°38'9 8.6
2014-Oct-21 20:33N 37°23' W 000°46'9 8.7
2014-Oct-21 19:32N 37°17' W 000°54'9 9.0
2014-Oct-21 18:29N 37°10' W 001°02'218 9.1
2014-Oct-20 18:33N 35°58' W 005°18'187 8.3
2014-Oct-19 20:05N 33°51' W 008°06'  

Dump ship's entire track history